WB2COY Weather Reports


time (UTC)temp
C
wind
direction
speed
KPH
gust
KPH
rain 1hr
cm
rain 24hr
cm
rain mn
cm
humidity
%
barometer
mb
20260505223016 26 248 1.6 12.9 0.00 0.00 0.00 24 1005.7
20260505220038 27 225 3.2 14.5 0.00 0.00 0.00 22 1005.3
20260505213036 27 225 3.2 16.1 0.00 0.00 0.00 23 1005.3
20260505210016 27 225 3.2 17.7 0.00 0.00 0.00 21 1005.0
20260505203116 28 225 4.8 24.1 0.00 0.00 0.00 22 1004.9
20260505200017 28 225 4.8 20.9 0.00 0.00 0.00 21 1005.7
20260505193037 28 225 4.8 19.3 0.00 0.00 0.00 23 1005.9
20260505190016 28 225 4.8 20.9 0.00 0.00 0.00 22 1006.2
20260505183016 28 225 4.8 16.1 0.00 0.00 0.00 22 1006.5
20260505180016 28 225 4.8 19.3 0.00 0.00 0.00 24 1006.9
20260505173016 28 225 3.2 17.7 0.00 0.00 0.00 25 1007.2
20260505170015 27 248 3.2 12.9 0.00 0.00 0.00 28 1007.4
20260505163037 27 203 3.2 16.1 0.00 0.00 0.00 29 1008.0
20260505153015 25 135 1.6 11.3 0.00 0.00 0.00 36 1008.8
20260505123015 18 0.0 3.2 0.00 0.00 0.00 50 1009.7
20260505120035 15 0.0 0.0 0.00 0.00 0.00 60 1009.8
20260505113055 13 0.0 1.6 0.00 0.00 0.00 62 1009.7
20260505100015 11 0.0 0.0 0.00 0.00 0.00 65 1009.5
20260505093015 10 0.0 0.0 0.00 0.00 0.00 64 1009.1
20260505090017 10 0.0 0.0 0.00 0.00 0.00 63 1008.9
20260505083017 11 0.0 0.0 0.00 0.00 0.00 61 1009.0
20260505080017 10 0.0 1.6 0.00 0.00 0.00 64 1009.0
20260505073018 10 0.0 0.0 0.00 0.00 0.00 63 1009.1
20260505070016 10 0.0 0.0 0.00 0.00 0.00 62 1009.2
20260505063017 11 0.0 1.6 0.00 0.00 0.00 60 1009.0
20260505060016 11 0.0 0.0 0.00 0.00 0.00 57 1009.1
20260505053016 12 0.0 1.6 0.00 0.00 0.00 54 1009.3
20260505040017 13 0.0 1.6 0.00 0.00 0.00 51 1009.6
20260505033038 13 0.0 1.6 0.00 0.00 0.00 51 1009.4
20260505030017 14 0.0 1.6 0.00 0.00 0.00 49 1009.5
20260505023017 15 0.0 1.6 0.00 0.00 0.00 47 1009.6
20260505020037 15 0.0 1.6 0.00 0.00 0.00 43 1009.5
20260505013017 16 0.0 1.6 0.00 0.00 0.00 39 1009.2
20260505010016 17 0.0 3.2 0.00 0.00 0.00 34 1008.8
20260505003016 18 0.0 3.2 0.00 0.00 0.00 33 1008.4
20260505000037 19 0.0 6.4 0.00 0.00 0.00 30 1007.8
20260504233016 20 225 1.6 12.9 0.00 0.00 0.00 27 1007.5
20260504230038 21 225 1.6 9.7 0.00 0.00 0.00 26 1007.1